Weather History for Valdosta, GA

Change the Weather History Date:

Wednesday, October 26, 2011

  Actual Average Record
Temperature  
Mean Temperature 65 °F -  
Max Temperature 80 °F 75 °F 88 °F (2010)
Min Temperature 50 °F 55 °F 37 °F (2005)
Growing Degree Days 15 (Base 50)    
Moisture  
Dew Point 54 °F    
Average Humidity 82    
Maximum Humidity 100    
Minimum Humidity 44    
Precipitation  
Precipitation 0.00 in - - ()
Sea Level Pressure  
Sea Level Pressure 30.10 in    
Wind  
Wind Speed 2 mph (ESE)    
Max Wind Speed 6 mph    
Max Gust Speed -    
Visibility 7 miles    
Events      
Averages and records for this station are not official NWS values.
T = Trace of Precipitation, MM = Missing Value Source: NWS Daily Summary

Daily Weather History Graph

Daily Weather History Graph

Search for Another Location

Airport:

Trip Planner

Search our weather history database for the weather conditions in past years. The results will help you decide how hot, cold, wet, or windy it might be!

Date:

Astronomy

Oct. 26, 2011 Rise Set
Actual Time 7:43 AM EDT 6:49 PM EDT
Civil Twilight 7:18 AM EDT 7:14 PM EDT
Nautical Twilight 6:50 AM EDT 7:42 PM EDT
Astronomical Twilight 6:21 AM EDT 8:11 PM EDT
Moon 7:26 AM EDT (10/26) 6:36 PM EDT (10/26)
Length of Visible Light 11h 56m
Length of Day
11h 06m
Waning Crescent, 0% of the Moon is Illuminated
Oct 26
Waning Crescent
Oct 26
New
Nov 2
First Quarter
Nov 10
Full
Nov 18
Last Quarter

Hourly Weather History & Observations

Time (EDT) Temp. Heat Index Dew Point Humidity Pressure Visibility Wind Dir Wind Speed Gust Speed Precip Events Conditions
12:55 AM 58.6 °F - 50.9 °F 75% 30.16 in 10.0 mi East 5.8 mph - N/A   Clear
1:55 AM 53.6 °F - 49.5 °F 86% 30.16 in 10.0 mi Calm Calm - N/A   Clear
2:55 AM 54.9 °F - 52.0 °F 90% 30.14 in 10.0 mi East 3.5 mph - N/A   Clear
3:55 AM 52.7 °F - 50.7 °F 93% 30.13 in 9.0 mi Calm Calm - N/A   Clear
4:55 AM 52.7 °F - 50.9 °F 94% 30.11 in 10.0 mi Calm Calm - N/A   Clear
5:55 AM 52.9 °F - 52.2 °F 97% 30.10 in 10.0 mi Calm Calm - N/A   Clear
6:07 AM 53.6 °F - 51.8 °F 94% 30.11 in 4.0 mi Calm Calm - N/A   Clear
6:15 AM 51.8 °F - 50.0 °F 94% 30.11 in 3.0 mi Calm Calm - N/A   Clear
6:55 AM 50.9 °F - 50.2 °F 97% 30.12 in 10.0 mi Calm Calm - N/A   Clear
7:09 AM 51.8 °F - 50.0 °F 94% 30.12 in 2.0 mi Calm Calm - N/A   Clear
7:10 AM 51.8 °F - 50.0 °F 94% 30.12 in 1.5 mi Calm Calm - N/A   Clear
7:12 AM 51.8 °F - 50.0 °F 94% 30.12 in 1.2 mi Calm Calm - N/A   Clear
7:13 AM 51.8 °F - 50.0 °F 94% 30.12 in 1.2 mi Calm Calm - N/A   Clear
7:17 AM 51.8 °F - 50.0 °F 94% 30.12 in 1.0 mi Calm Calm - N/A   Clear
7:20 AM 51.8 °F - 50.0 °F 94% 30.12 in 1.2 mi Calm Calm - N/A   Clear
7:21 AM 51.8 °F - 50.0 °F 94% 30.12 in 1.5 mi Calm Calm - N/A   Clear
7:22 AM 51.8 °F - 51.8 °F 100% 30.12 in 1.5 mi Calm Calm - N/A   Clear
7:26 AM 51.8 °F - 50.0 °F 94% 30.13 in 2.0 mi Calm Calm - N/A   Clear
7:27 AM 51.8 °F - 50.0 °F 94% 30.13 in 3.0 mi Calm Calm - N/A   Clear
7:55 AM 50.0 °F - 49.5 °F 98% 30.13 in 10.0 mi North 3.5 mph - N/A   Clear
8:55 AM 57.2 °F - 56.8 °F 99% 30.15 in 10.0 mi Calm Calm - N/A   Clear
9:55 AM 64.2 °F - 59.4 °F 84% 30.16 in 10.0 mi ESE 3.5 mph - N/A   Partly Cloudy
10:55 AM 69.8 °F - 59.5 °F 70% 30.15 in 10.0 mi Variable 5.8 mph - N/A   Mostly Cloudy
11:55 AM 73.6 °F - 57.6 °F 57% 30.15 in 10.0 mi Calm Calm - N/A   Overcast
12:55 PM 76.8 °F - 56.7 °F 50% 30.12 in 10.0 mi Variable 4.6 mph - N/A   Scattered Clouds
1:55 PM 77.2 °F - 56.8 °F 49% 30.08 in 10.0 mi ENE 3.5 mph - N/A   Mostly Cloudy
2:55 PM 77.7 °F - 56.5 °F 48% 30.05 in 10.0 mi SE 4.6 mph - N/A   Mostly Cloudy
3:55 PM 80.1 °F 80.3 °F 56.1 °F 44% 30.03 in 10.0 mi SE 4.6 mph - N/A   Mostly Cloudy
4:55 PM 76.6 °F - 56.8 °F 50% 30.01 in 10.0 mi Calm Calm - N/A   Overcast
5:55 PM 76.3 °F - 57.6 °F 52% 30.01 in 10.0 mi Calm Calm - N/A   Overcast
6:55 PM 68.9 °F - 60.3 °F 74% 30.01 in 10.0 mi Calm Calm - N/A   Overcast
7:55 PM 68.7 °F - 60.4 °F 75% 30.01 in 10.0 mi Calm Calm - N/A   Overcast
8:55 PM 68.0 °F - 62.1 °F 81% 30.01 in 10.0 mi Calm Calm - N/A   Overcast
9:55 PM 66.2 °F - 60.6 °F 82% 30.01 in 10.0 mi Calm Calm - N/A   Overcast
10:55 PM 66.6 °F - 61.2 °F 83% 30.01 in 10.0 mi SSW 4.6 mph - N/A   Overcast
11:55 PM 67.1 °F - 60.6 °F 80% 30.01 in 10.0 mi SE 4.6 mph - N/A   Overcast